sat.trackr.live / text

‹ back to catalog

STARLINK-35066

NORAD 65386 · 2025-191H

PAYLOAD ACTIVE UNKNOWN

§ Identity

Operator
Country
US
Launch date
2025-08-30
Launch site
AFWTR
Launch vehicle
Mass (kg)
RCS (m²)

Purposes: comms

External: N2YO · Heavens-Above · Gunter

§ Orbital elements

Epoch: 2026-09-20T13:58:53.459616Z

Period
93.91 min
Inclination
97.2846°
Eccentricity
0.0002235
Mean motion
15.33451741 rev/d
Perigee alt
464.0 km
Apogee alt
467.1 km
Semi-major
6,843.7 km
B*
3.7211e-4
RAAN
129.6482°
Arg perigee
86.2439°
Mean anomaly
273.9059°
Rev number
5,965

§ Raw data

STARLINK-350661 65386U 25191H   26263.58256319  .00011960  00000+0  37211-3 0  99972 65386  97.2846 129.6482 0002235  86.2439 273.9059 15.33451741 59656

JSON: /api/v1/satellites/65386 · /tle

For live sub-satellite position, see the globe view (requires WebGL).

§ Visibility from observer

Set your observer location to see the next 7 days of passes ≥ 10°. The values pass through the URL so the page stays shareable.

No JS? Fill the form by hand. The geolocation button needs JavaScript.